ONEWEB-0053, 45157

Orbit data source: Space-Track

ONEWEB-0053, 45157 is a payload satellite owned by One Web (UK) in LEO that was launched on Thu, 06 Feb 2020 UTC via a SOYUZ-2-1B launch vehicle from the Tyuratam Missile And Space Complex (TTMTR). Payload-class satellites include a variety of spacecraft equipped with specific instruments for various scientific and technological missions. These include communications satellites like Starlink; space stations such as the ISS; scientific satellites like the Hubble; Earth observation satellites from companies like Planet Labs, Umbra, and HawkEye 360; GPS; miniature CubeSats for education and research; and military/defense satellites.

Loading next visibility...
Identifier
45157, 2020-008AC
Orbit
LEO
Country
Flag of UKUK
Related business
Manufacturer
One Web
Mission
Operational Commercial Communications
Bus & Motor
ARROW, Unknown motor
Mass
148 kg wet, ~140 kg dry
Launch date (UTC)
2020-02-06 (6 years ago)
Launch vehicle
SOYUZ-2-1B
Launch site
Tyuratam Missile And Space Complex (TTMTR)
Object type
Payload
Rocket body
Debris
Shape & HBR
Trap Box + 2 Pan, 6.7 m
Radar Cross Section
3.464 m², Large (>1 m²)

Expand to show TLE details & history
Last TLE update: 17 hours ago

TLE from 17 hours ago
0 ONEWEB-0053
1 45157U 20008AC  25349.17899285 -.00000343  00000-0 -10182-2 0  9990
2 45157  87.8807  72.9731 0002025 103.1700 256.9653 13.10369384283818
Epoch: 2025-12-15T04:17Z
TLE epoch observation values (Epoch: 2025-12-15T04:17:44.982Z)
Latitude
-0.00004°
Longitude
-75.5456°
Altitude
1,224.965 km
Speed
7.242 km/s
True Right ascension
04h 51m 53s
True Declination
0° 00' 00"
Sunlit
Object was in full shadow at epoch
Visualization orbit readout
Latitude
Unknown
Longitude
Unknown
Altitude
Unknown
Speed
Unknown
Apparent Right ascension
Unknown
Apparent Declination
Unknown
Sunlit
N/A
Visualization observer readout
Local Sidereal Time
20:12:48
Azimuth
Unknown
Elevation
Unknown
Doppler factor
Unknown
Orbital elements
Apogee altitude
1,220.389 km
Perigee altitude
1,217.312 km
Semi-major axis
7,596.987 km
Eccentricity
0.0002
Inclination
87.8807°
RAAN
72.9731°
Arg. of periapsis
103.17°
True anomaly
256.94269°
Mean anomaly
256.9653°
Eccentric anomaly
256.954°
Mean motion
3.27779 °/min
Orbital period
109.83 mins
BSTAR
-0.0010182
Loading maneuver chart data...
Computing Atmospheric mass density...
Loading historical data...
Loading historical data...
Loading historical data...
Loading historical data...
Loading historical data...
Loading historical data...
Loading historical data...

Documentation

Showing up to 5 results
|